Location: Unspecified
(29.9680°N, 0.0000°E)
Time: 01:49:24
(UTC+00:00)

A-11 Canister half - Pass Details

Date: 21 June 2019
Orbit: 1526 x 1683 km, 47.3° (Epoch: 18 August)

Event Time Altitude Azimuth Distance (km) Brightness Sun altitude
Rises 07:14:22 0° 288° (WNW) 4,707 11.1 26.5°
Reaches altitude 10° 07:18:09 10° 301° (WNW) 3,709 10.7 27.3°
Maximum altitude 07:25:42 27° 356° (N) 2,624 10.5 28.9°
Drops below altitude 10° 07:33:14 10° 50° (NE) 3,698 12.1 30.5°
Sets 07:37:01 0° 63° (ENE) 4,691 12.6 31.3°
